Location: Ponte Samoggia
(44.5667°N, 11.1333°E)
Time: 23:12:39
(UTC+00:00)

Genesis I - Pass Details

Date: 26 May 2022
Orbit: 463 x 544 km, 64.5° (Epoch: 29 June)

Event Time Altitude Azimuth Distance (km) Brightness Sun altitude
Rises 02:56:10 0° 321° (NW) 2,712 6.9 -6.9°
Reaches altitude 10° 02:58:25 10° 319° (NW) 1,810 5.9 -6.6°
Maximum altitude 03:02:26 63° 238° (WSW) 600 3.3 -6.0°
Drops below altitude 10° 03:06:21 10° 157° (SSE) 1,764 5.8 -5.4°
Sets 03:08:31 0° 154° (SSE) 2,635 6.7 -5.1°
